When you browse on this site, cookies collect data to enhance your experience and personalize the content and advertising you see.
Visit our Privacy Policy to learn more. By continuing to use the site, you agree to this use of cookies and data.
  • In Österreich
  • Länderverzeichnis
  • Für 7 Tage
  • Wassertemperatur
  • Satellitenkarten
  • Wetterkarte
  • News
  • Widgets
  • user-avatar
    Anmelden

    Stündliche Wetter Veresnica

    Heute, 22 Mai, Mittwoch

    Zeit Temperatur Niederschläge Wind Luftdruck Luftfeuchtigkeit
    00:00 +14°C° 0 mm 2 m/S 745 mmHg 96%
    01:00 +14°C° 0 mm 2 m/S 745 mmHg 97%
    02:00 +13°C° 0 mm 2 m/S 745 mmHg 97%
    03:00 +13°C° 0 mm 2 m/S 745 mmHg 97%
    04:00 +13°C° 0 mm 1 m/S 745 mmHg 96%
    05:00 +13°C° 0 mm 1 m/S 745 mmHg 96%
    06:00 +14°C° 0 mm 2 m/S 745 mmHg 88%
    07:00 +16°C° 0 mm 2 m/S 745 mmHg 81%
    08:00 +18°C° 0 mm 2 m/S 745 mmHg 73%
    09:00 +19°C° 0 mm 2 m/S 745 mmHg 65%
    10:00 +21°C° 0 mm 2 m/S 745 mmHg 58%
    11:00 +23°C° 0 mm 2 m/S 745 mmHg 51%
    12:00 +23°C° 0.1 mm 2 m/S 745 mmHg 50%
    13:00 +24°C° 0.1 mm 2 m/S 745 mmHg 49%
    14:00 +24°C° 0.1 mm 1 m/S 745 mmHg 48%
    15:00 +24°C° 0.2 mm 1 m/S 744 mmHg 50%
    16:00 +24°C° 0.2 mm 1 m/S 744 mmHg 52%
    17:00 +24°C° 0.2 mm 2 m/S 744 mmHg 53%
    18:00 +22°C° 0.2 mm 1 m/S 744 mmHg 63%
    19:00 +20°C° 0.2 mm 1 m/S 744 mmHg 72%
    20:00 +18°C° 0.2 mm 1 m/S 744 mmHg 82%
    21:00 +15°C° 0 mm 0 m/S 744 mmHg 83%
    22:00 +14°C° 0 mm 0 m/S 744 mmHg 85%
    23:00 +14°C° 0 mm 0 m/S 744 mmHg 86%

    Morgen, 23 Mai, Donnerstag

    Zeit Temperatur Niederschläge Wind Luftdruck Luftfeuchtigkeit
    00:00 +13°C° 0 mm 0 m/S 744 mmHg 87%
    01:00 +13°C° 0 mm 0 m/S 745 mmHg 88%
    02:00 +13°C° 0 mm 0 m/S 745 mmHg 89%
    03:00 +13°C° 0 mm 0 m/S 745 mmHg 89%
    04:00 +13°C° 0 mm 0 m/S 745 mmHg 89%
    05:00 +13°C° 0 mm 0 m/S 745 mmHg 90%
    06:00 +14°C° 0 mm 0 m/S 745 mmHg 84%
    07:00 +16°C° 0 mm 0 m/S 745 mmHg 78%
    08:00 +20°C° 0 mm 1 m/S 745 mmHg 72%
    09:00 +20°C° 0 mm 0 m/S 745 mmHg 65%
    10:00 +22°C° 0 mm 0 m/S 745 mmHg 58%
    11:00 +24°C° 0 mm 0 m/S 745 mmHg 51%
    12:00 +24°C° 0 mm 0 m/S 745 mmHg 48%
    13:00 +27°C° 0 mm 1 m/S 745 mmHg 45%
    14:00 +27°C° 0 mm 1 m/S 744 mmHg 43%
    15:00 +27°C° 0 mm 1 m/S 744 mmHg 44%
    16:00 +26°C° 0 mm 1 m/S 744 mmHg 46%
    17:00 +26°C° 0 mm 1 m/S 744 mmHg 47%
    18:00 +24°C° 0 mm 1 m/S 744 mmHg 55%
    19:00 +22°C° 0 mm 1 m/S 744 mmHg 63%
    20:00 +19°C° 0 mm 2 m/S 744 mmHg 71%
    21:00 +19°C° 0 mm 1 m/S 744 mmHg 76%
    22:00 +18°C° 0 mm 1 m/S 744 mmHg 80%
    23:00 +16°C° 0 mm 1 m/S 745 mmHg 84%

    übermorgen, 24 Mai, Freitag

    Zeit Temperatur Niederschläge Wind Luftdruck Luftfeuchtigkeit
    00:00 +16°C° 0 mm 1 m/S 745 mmHg 86%
    01:00 +15°C° 0 mm 1 m/S 745 mmHg 87%
    02:00 +15°C° 0 mm 1 m/S 745 mmHg 89%
    03:00 +15°C° 0 mm 1 m/S 745 mmHg 89%
    04:00 +15°C° 0 mm 1 m/S 745 mmHg 90%
    05:00 +15°C° 0 mm 1 m/S 745 mmHg 90%
    06:00 +18°C° 0 mm 1 m/S 745 mmHg 84%
    07:00 +20°C° 0 mm 1 m/S 745 mmHg 77%
    08:00 +22°C° 0 mm 1 m/S 745 mmHg 70%
    09:00 +23°C° 0.4 mm 1 m/S 745 mmHg 69%
    10:00 +23°C° 0.4 mm 2 m/S 745 mmHg 68%
    11:00 +24°C° 0.4 mm 2 m/S 745 mmHg 66%
    12:00 +24°C° 0.8 mm 2 m/S 745 mmHg 67%
    13:00 +24°C° 0.8 mm 2 m/S 745 mmHg 68%
    14:00 +24°C° 0.8 mm 3 m/S 745 mmHg 69%
    15:00 +22°C° 1 mm 3 m/S 745 mmHg 72%
    16:00 +22°C° 1 mm 3 m/S 744 mmHg 74%
    17:00 +21°C° 1 mm 3 m/S 744 mmHg 77%
    18:00 +20°C° 0.3 mm 3 m/S 744 mmHg 82%
    19:00 +19°C° 0.3 mm 3 m/S 744 mmHg 86%
    20:00 +17°C° 0.3 mm 3 m/S 744 mmHg 91%
    21:00 +16°C° 0 mm 2 m/S 744 mmHg 92%
    22:00 +16°C° 0 mm 2 m/S 744 mmHg 93%
    23:00 +15°C° 0 mm 2 m/S 744 mmHg 94%

    25 Mai, Samstag

    Zeit Temperatur Niederschläge Wind Luftdruck Luftfeuchtigkeit
    00:00 +15°C° 0 mm 2 m/S 744 mmHg 95%
    01:00 +14°C° 0 mm 2 m/S 744 mmHg 96%
    02:00 +14°C° 0 mm 2 m/S 744 mmHg 97%
    03:00 +13°C° 0.5 mm 3 m/S 744 mmHg 97%
    04:00 +12°C° 0.5 mm 3 m/S 744 mmHg 96%
    05:00 +12°C° 0.5 mm 3 m/S 744 mmHg 95%
    06:00 +13°C° 0.1 mm 3 m/S 744 mmHg 90%
    07:00 +13°C° 0.1 mm 4 m/S 745 mmHg 85%
    08:00 +14°C° 0.1 mm 4 m/S 745 mmHg 81%
    09:00 +17°C° 0 mm 4 m/S 745 mmHg 68%
    10:00 +17°C° 0 mm 5 m/S 745 mmHg 56%
    11:00 +20°C° 0 mm 5 m/S 745 mmHg 43%
    12:00 +21°C° 0 mm 5 m/S 745 mmHg 44%
    13:00 +21°C° 0 mm 4 m/S 744 mmHg 44%
    14:00 +22°C° 0 mm 4 m/S 744 mmHg 45%
    15:00 +22°C° 0.1 mm 4 m/S 744 mmHg 49%
    16:00 +21°C° 0.1 mm 4 m/S 744 mmHg 54%
    17:00 +21°C° 0.1 mm 4 m/S 744 mmHg 58%
    18:00 +19°C° 0.4 mm 3 m/S 744 mmHg 68%
    19:00 +18°C° 0.4 mm 3 m/S 744 mmHg 79%
    20:00 +16°C° 0.4 mm 2 m/S 744 mmHg 89%
    21:00 +15°C° 0 mm 2 m/S 744 mmHg 91%
    22:00 +14°C° 0 mm 2 m/S 744 mmHg 92%
    23:00 +12°C° 0 mm 3 m/S 744 mmHg 94%

    26 Mai, Sonntag

    Zeit Temperatur Niederschläge Wind Luftdruck Luftfeuchtigkeit
    00:00 +12°C° 0 mm 3 m/S 745 mmHg 95%
    01:00 +11°C° 0 mm 3 m/S 745 mmHg 96%
    02:00 +11°C° 0 mm 3 m/S 745 mmHg 96%
    03:00 +10°C° 0 mm 3 m/S 745 mmHg 96%
    04:00 +10°C° 0 mm 2 m/S 745 mmHg 96%
    05:00 +10°C° 0 mm 2 m/S 745 mmHg 96%
    06:00 +11°C° 0.1 mm 3 m/S 745 mmHg 91%
    07:00 +12°C° 0.1 mm 3 m/S 745 mmHg 87%
    08:00 +13°C° 0.1 mm 4 m/S 745 mmHg 82%
    09:00 +14°C° 0.1 mm 4 m/S 745 mmHg 76%
    10:00 +15°C° 0.1 mm 5 m/S 745 mmHg 69%
    11:00 +16°C° 0.1 mm 5 m/S 745 mmHg 63%
    12:00 +16°C° 0.1 mm 5 m/S 745 mmHg 64%
    13:00 +16°C° 0.1 mm 5 m/S 744 mmHg 64%
    14:00 +16°C° 0.1 mm 5 m/S 744 mmHg 65%
    15:00 +16°C° 0.1 mm 5 m/S 744 mmHg 64%
    16:00 +16°C° 0.1 mm 5 m/S 744 mmHg 64%
    17:00 +16°C° 0.1 mm 5 m/S 743 mmHg 63%
    18:00 +15°C° 0.1 mm 5 m/S 743 mmHg 69%
    19:00 +14°C° 0.1 mm 4 m/S 744 mmHg 74%
    20:00 +13°C° 0.1 mm 3 m/S 744 mmHg 79%
    21:00 +12°C° 0 mm 3 m/S 744 mmHg 80%
    22:00 +12°C° 0 mm 3 m/S 744 mmHg 81%
    23:00 +11°C° 0 mm 4 m/S 744 mmHg 82%

    27 Mai, Montag

    Zeit Temperatur Niederschläge Wind Luftdruck Luftfeuchtigkeit
    00:00 +11°C° 0 mm 4 m/S 744 mmHg 83%
    01:00 +11°C° 0 mm 4 m/S 744 mmHg 84%
    02:00 +10°C° 0 mm 4 m/S 744 mmHg 84%
    03:00 +10°C° 0.1 mm 4 m/S 744 mmHg 85%
    04:00 +8°C° 0.1 mm 4 m/S 745 mmHg 87%
    05:00 +8°C° 0.1 mm 4 m/S 745 mmHg 88%
    06:00 +9°C° 0 mm 5 m/S 745 mmHg 79%
    07:00 +10°C° 0 mm 5 m/S 745 mmHg 70%
    08:00 +11°C° 0 mm 6 m/S 746 mmHg 61%
    09:00 +13°C° 0 mm 6 m/S 746 mmHg 58%
    10:00 +14°C° 0 mm 6 m/S 746 mmHg 56%
    11:00 +15°C° 0 mm 6 m/S 746 mmHg 53%
    12:00 +16°C° 0 mm 6 m/S 746 mmHg 52%
    13:00 +17°C° 0 mm 6 m/S 746 mmHg 52%
    14:00 +17°C° 0 mm 6 m/S 746 mmHg 51%
    15:00 +19°C° 0 mm 5 m/S 746 mmHg 52%
    16:00 +19°C° 0 mm 5 m/S 747 mmHg 52%
    17:00 +19°C° 0 mm 5 m/S 747 mmHg 53%
    18:00 +17°C° 0 mm 3 m/S 747 mmHg 60%
    19:00 +16°C° 0 mm 2 m/S 747 mmHg 67%
    20:00 +15°C° 0 mm 1 m/S 747 mmHg 74%
    21:00 +14°C° 0 mm 2 m/S 747 mmHg 78%
    22:00 +14°C° 0 mm 2 m/S 747 mmHg 82%
    23:00 +13°C° 0 mm 3 m/S 746 mmHg 86%
    Mehr zeigen